Stations météo

réclame
Mon MeteoGroup
Westdorpe aws, Pays-Bas (6319): Température de l'air & dewpoint: 18.05.2019 03:00:00 - 24.05.2019 03:00:00 (CEST)Westdorpe aws, Pays-Bas (6319): Température de l'air 5cm: 18.05.2019 03:00:00 - 24.05.2019 03:00:00 (CEST)Westdorpe aws, Pays-Bas (6319): Vitesse du vent & gusts: 18.05.2019 03:00:00 - 24.05.2019 03:00:00 (CEST)Westdorpe aws, Pays-Bas (6319): Direction du vent: 18.05.2019 03:00:00 - 24.05.2019 03:00:00 (CEST)Westdorpe aws, Pays-Bas (6319): reduced air pressure: 18.05.2019 03:00:00 - 24.05.2019 03:00:00 (CEST)Westdorpe aws, Pays-Bas (6319): visibility: 18.05.2019 03:00:00 - 24.05.2019 03:00:00 (CEST)Westdorpe aws, Pays-Bas (6319): Quantités de précipitations: 18.05.2019 03:00:00 - 24.05.2019 03:00:00 (CEST)
Date & Time tt [°C] td [°C] tt 5cm [°C] ff [km/h] ff [knt] fx [km/h] fx [knt] dd ppp [hPa] vv [km] rr [mm]
24.05.2019 03:00:00 10,8 8,3 7,8 4 2 7 4 W 1015,4 47 0,0
24.05.2019 02:00:00 11,2 8,7 8,4 4 2 7 4 SSW 1015,4 50 0,0
24.05.2019 01:00:00 12,0 9,1 9,0 0 0 7 4 N 1015,8 46 0,0
24.05.2019 00:00:00 13,0 10,1 10,4 4 2 7 4 SSE 1016,0 48 0,0
23.05.2019 23:00:00 15,4 8,5 11,9 4 2 7 4 ENE 1016,1 49 0,0
23.05.2019 22:00:00 17,2 9,4 16,1 4 2 11 6 NNE 1016,2 50 0,0
23.05.2019 21:00:00 18,7 8,9 18,2 7 4 14 8 N 1016,2 50 0,0
23.05.2019 20:00:00 20,7 8,9 20,9 7 4 11 6 N 1016,0 49 0,0
23.05.2019 19:00:00 21,0 6,7 21,0 7 4 18 10 NE 1016,2 45 0,0
23.05.2019 18:00:00 21,6 6,2 22,5 14 8 18 10 NE 1016,5 41 0,0
23.05.2019 17:00:00 22,2 6,7 24,8 11 6 22 12 NNW 1016,9 37 0,0
23.05.2019 16:00:00 21,6 6,8 23,0 11 6 22 12 NNW 1017,3 37 0,0
23.05.2019 15:00:00 21,3 6,7 23,3 14 8 25 14 WNW 1017,7 37 0,0
23.05.2019 14:00:00 21,6 5,8 23,8 18 10 32 18 W 1017,9 42 0,0
23.05.2019 13:00:00 19,8 5,9 21,9 18 10 32 18 W 1018,3 39 0,0
23.05.2019 12:00:00 19,3 4,0 22,2 14 8 29 16 SW 1018,5 33 0,0
23.05.2019 11:00:00 18,3 4,0 20,8 18 10 25 14 WSW 1018,6 34 0,0
23.05.2019 10:00:00 17,0 6,9 18,2 11 6 18 10 WSW 1018,8 28 0,0
23.05.2019 09:00:00 15,1 8,0 15,9 11 6 14 8 WSW 1018,8 35 0,0
23.05.2019 08:00:00 13,0 7,1 11,9 4 2 7 4 SSW 1018,7 30 0,0
23.05.2019 07:00:00 9,3 6,1 6,4 0 0 11 6 N 1018,5 36 0,0
23.05.2019 06:00:00 7,3 5,0 4,2 4 2 11 6 S 1018,3 35 0,0
23.05.2019 05:00:00 9,5 5,1 5,3 7 4 11 6 SSE 1018,6 46 0,0
23.05.2019 04:00:00 9,6 5,4 6,0 7 4 11 6 SSE 1019,0 46 0,0
23.05.2019 03:00:00 10,4 5,6 6,7 4 2 11 6 SSE 1019,3 49 0,0
23.05.2019 02:00:00 9,9 5,9 5,9 4 2 11 6 SSE 1019,6 49 0,0
23.05.2019 01:00:00 11,6 5,9 8,5 7 4 11 6 SSE 1019,8 49 0,0
23.05.2019 00:00:00 11,8 5,8 8,3 7 4 11 6 SE 1019,9 50 0,0
22.05.2019 23:00:00 10,7 6,7 8,0 4 2 7 4 SE 1020,1 50 0,0
22.05.2019 22:00:00 13,2 6,6 10,8 4 2 7 4 E 1020,2 50 0,0
22.05.2019 21:00:00 16,2 6,6 15,9 7 4 14 8 ENE 1020,0 48 0,0
22.05.2019 20:00:00 17,2 5,5 17,5 11 6 14 8 NNE 1020,1 49 0,0
22.05.2019 19:00:00 17,3 5,3 17,7 11 6 18 10 N 1020,1 49 0,0
22.05.2019 18:00:00 17,7 5,5 18,6 11 6 22 12 N 1020,4 41 0,0
22.05.2019 17:00:00 17,8 3,8 19,9 14 8 22 12 NNW 1020,6 41 0,0
22.05.2019 16:00:00 17,1 4,8 17,9 14 8 32 18 NW 1020,7 46 0,0
22.05.2019 15:00:00 19,0 5,5 20,9 22 12 36 19 WNW 1020,5 49 0,0
22.05.2019 14:00:00 20,0 7,1 22,5 22 12 36 19 WNW 1020,2 24 0,0
22.05.2019 13:00:00 17,8 8,5 20,4 14 8 25 14 W 1020,3 20 0,0
22.05.2019 12:00:00 17,4 9,3 20,0 11 6 22 12 SW 1020,3 14 0,0
22.05.2019 11:00:00 15,8 9,7 17,9 7 4 18 10 SW 1020,3 3,7 0,0
22.05.2019 10:00:00 13,2 10,1 14,4 7 4 14 8 S 1020,4 4,3 0,0
22.05.2019 09:00:00 11,6 9,3 12,6 7 4 14 8 S 1020,4 7 0,0
22.05.2019 08:00:00 10,0 9,1 10,1 4 2 11 6 S 1020,0 3,8 0,0
22.05.2019 07:00:00 7,0 7,0 5,0 4 2 7 4 S 1020,1 1,4 0,0
22.05.2019 06:00:00 5,3 4,9 2,8 4 2 7 4 S 1020,0 0,7 0,0
22.05.2019 05:00:00 5,8 5,4 3,6 4 2 4 2 S 1020,0 1,0 0,0
22.05.2019 04:00:00 6,6 6,2 3,5 0 0 7 4 N 1019,9 0,7 0,0
22.05.2019 03:00:00 7,9 7,5 5,2 4 2 7 4 WNW 1019,7 3,2 0,0
22.05.2019 02:00:00 7,5 7,1 4,2 0 0 4 2 N 1019,6 2,5 0,0
22.05.2019 01:00:00 7,8 7,4 5,0 0 0 7 4 N 1019,5 2,8 0,0
22.05.2019 00:00:00 8,6 7,9 6,6 7 4 11 6 W 1019,5 5 0,0
21.05.2019 23:00:00 9,5 8,3 8,6 11 6 14 8 WNW 1019,4 7 0,0
21.05.2019 22:00:00 10,6 8,6 10,0 11 6 22 12 NW 1019,3 14 0,0
21.05.2019 21:00:00 12,3 9,1 12,5 14 8 25 14 NW 1019,1 17 0,0
21.05.2019 20:00:00 13,1 9,6 13,6 22 12 29 16 NW 1018,6 16 0,0
21.05.2019 19:00:00 15,0 10,3 15,8 18 10 29 16 NW 1018,2 17 0,0
21.05.2019 18:00:00 15,2 9,8 16,7 22 12 36 19 NW 1018,1 25 0,0
21.05.2019 17:00:00 15,6 9,7 17,4 22 12 32 18 NNW 1018,0 35 0,0
21.05.2019 16:00:00 15,0 9,8 17,1 25 14 36 19 NW 1017,9 34 0,0
21.05.2019 15:00:00 15,2 9,9 16,0 25 14 36 19 NNW 1017,7 31 0,0
21.05.2019 14:00:00 15,4 10,4 16,9 22 12 36 19 NW 1017,3 25 0,0
21.05.2019 13:00:00 14,4 9,7 16,0 22 12 32 18 NNW 1016,9 27 0,0
21.05.2019 12:00:00 13,6 9,7 14,7 25 14 36 19 NW 1016,6 27 0,0
21.05.2019 11:00:00 12,5 9,6 13,0 25 14 32 18 NW 1016,3 22 0,0
21.05.2019 10:00:00 11,8 9,4 12,0 22 12 36 19 NW 1016,1 19 0,0
21.05.2019 09:00:00 11,2 9,2 11,3 18 10 36 19 NW 1015,5 14 0,0
21.05.2019 08:00:00 10,9 8,8 10,9 22 12 36 19 NW 1014,7 13 0,0
21.05.2019 07:00:00 10,5 8,6 10,4 18 10 36 19 NW 1014,6 10 0,0
21.05.2019 06:00:00 10,3 8,3 10,2 22 12 36 19 NW 1014,5 10 0,0
21.05.2019 05:00:00 10,2 8,1 10,1 22 12 29 16 NW 1014,1 12 0,0
21.05.2019 04:00:00 10,1 8,1 10,0 18 10 32 18 NW 1013,9 10 0,0
21.05.2019 03:00:00 10,0 8,1 9,9 22 12 32 18 NW 1013,8 10 0,0
21.05.2019 02:00:00 10,5 8,5 10,4 18 10 29 16 NW 1013,5 12 0,0
21.05.2019 01:00:00 10,8 9,0 10,7 18 10 25 14 NW 1013,6 10 0,0
21.05.2019 00:00:00 10,8 9,6 10,7 18 10 25 14 NW 1013,7 4,3 0,0
20.05.2019 23:00:00 10,8 9,9 10,9 14 8 25 14 NW 1013,5 3,9 0,0
20.05.2019 22:00:00 11,1 10,0 11,1 18 10 29 16 NW 1013,1 5 0,0
20.05.2019 21:00:00 11,4 10,4 11,4 22 12 36 19 NW 1012,4 5 0,0
20.05.2019 20:00:00 11,7 10,8 11,7 22 12 32 18 NW 1012,0 3,8 0,0
20.05.2019 19:00:00 11,7 11,0 11,8 14 8 32 18 NW 1011,9 2,7 0,0
20.05.2019 18:00:00 12,0 10,4 12,2 18 10 32 18 NW 1011,7 6 0,0
20.05.2019 17:00:00 12,3 10,5 12,7 22 12 29 16 NW 1011,5 10 0,0
20.05.2019 16:00:00 12,2 10,3 12,5 22 12 29 16 NW 1011,3 11 0,0
20.05.2019 15:00:00 12,8 10,1 13,3 18 10 25 14 NW 1011,2 17 0,0
20.05.2019 14:00:00 12,9 10,8 13,5 18 10 29 16 NW 1011,1 14 0,0
20.05.2019 13:00:00 12,3 10,7 12,5 22 12 32 18 NW 1010,6 9 0,0
20.05.2019 12:00:00 11,9 11,1 12,1 18 10 25 14 NW 1009,9 4,1 0,0
20.05.2019 11:00:00 11,8 10,8 12,0 18 10 25 14 NW 1009,9 5 0,0
20.05.2019 10:00:00 11,7 10,7 12,0 18 10 25 14 NW 1009,5 7 0,0
20.05.2019 09:00:00 11,7 10,6 11,7 14 8 22 12 NW 1009,3 11 0,0
20.05.2019 08:00:00 11,6 10,4 11,6 14 8 22 12 NW 1009,0 13 0,0
20.05.2019 07:00:00 11,2 10,1 11,1 14 8 22 12 NNW 1008,6 9 0,0
20.05.2019 06:00:00 11,0 9,9 10,9 14 8 29 16 NNW 1008,3 10 0,0
20.05.2019 05:00:00 11,0 10,2 11,0 14 8 25 14 N 1008,3 4,6 0,0
20.05.2019 04:00:00 11,1 10,2 11,1 18 10 29 16 N 1008,2 5 0,0
20.05.2019 03:00:00 11,1 10,4 11,1 18 10 29 16 NNW 1008,2 4,0 0,0
20.05.2019 02:00:00 11,2 10,7 11,2 18 10 29 16 NNW 1008,2 2,1 0,0
20.05.2019 01:00:00 11,1 10,6 11,2 22 12 32 18 NNW 1008,3 2,7 0,0
20.05.2019 00:00:00 11,1 10,7 11,1 18 10 25 14 NNW 1008,4 1,8 0,0
19.05.2019 23:00:00 11,1 10,6 11,2 18 10 25 14 NNW 1008,5 1,9 0,0
19.05.2019 22:00:00 11,2 10,5 11,4 18 10 25 14 N 1008,7 2,5 0,0
19.05.2019 21:00:00 11,6 10,4 11,7 11 6 25 14 N 1008,2 3,3 0,0
19.05.2019 20:00:00 11,9 10,3 12,1 18 10 36 19 N 1008,0 5 0,0
19.05.2019 19:00:00 12,6 10,5 13,0 25 14 32 18 NNW 1007,6 6 0,0
19.05.2019 18:00:00 12,9 10,6 13,3 25 14 36 19 NNW 1007,8 6 0,0
19.05.2019 17:00:00 13,9 11,1 15,0 25 14 36 19 NNW 1007,6 7 0,0
19.05.2019 16:00:00 14,8 11,8 16,2 25 14 32 18 NNW 1007,4 8 0,0
19.05.2019 15:00:00 15,6 12,3 16,9 25 14 32 18 NNW 1007,5 9 0,0
19.05.2019 14:00:00 14,9 12,7 16,0 18 10 36 19 NNW 1007,5 7 0,1
19.05.2019 13:00:00 13,6 11,6 14,0 22 12 36 19 NNW 1007,3 6 0,1
19.05.2019 12:00:00 14,7 12,0 15,1 22 12 32 18 NNW 1007,6 8 0,0
19.05.2019 11:00:00 14,2 12,3 14,3 18 10 25 14 NNW 1007,9 6 0,1
19.05.2019 10:00:00 13,6 11,6 13,8 11 6 14 8 NNW 1007,8 4,3 0,1
19.05.2019 09:00:00 14,0 11,9 14,1 11 6 18 10 NNW 1007,6 4,3 0,0
19.05.2019 08:00:00 13,4 11,6 13,4 11 6 22 12 NNW 1007,2 3,5 0,0
19.05.2019 07:00:00 13,0 11,3 12,7 11 6 22 12 N 1006,9 3,5 0,0
19.05.2019 06:00:00 12,8 11,2 12,3 11 6 18 10 NNW 1006,6 2,8 0,0
19.05.2019 05:00:00 12,6 11,0 12,2 11 6 14 8 NNW 1006,6 2,9 0,0
19.05.2019 04:00:00 12,3 10,9 12,1 7 4 11 6 NW 1006,9 2,7 0,2
19.05.2019 03:00:00 12,6 10,2 11,9 4 2 11 6 N 1006,9 4,3 0,0
19.05.2019 02:00:00 12,5 9,8 11,8 7 4 11 6 NNE 1007,2 4,8 0,0
19.05.2019 01:00:00 12,7 9,6 12,2 7 4 14 8 NNE 1007,4 6 0,0
19.05.2019 00:00:00 12,9 9,5 12,2 7 4 11 6 N 1007,7 7 0,0
18.05.2019 23:00:00 13,6 9,5 13,0 11 6 18 10 N 1007,7 8 0,0
18.05.2019 22:00:00 14,4 8,8 14,0 14 8 22 12 NNE 1007,6 11 0,0
18.05.2019 21:00:00 15,2 8,9 15,0 14 8 25 14 N 1007,2 11 0,0
18.05.2019 20:00:00 16,4 8,8 16,6 18 10 29 16 NNE 1006,7 11 0,0
18.05.2019 19:00:00 17,5 9,8 18,2 18 10 29 16 N 1006,5 11 0,0
18.05.2019 18:00:00 19,3 8,7 20,3 18 10 22 12 N 1006,0 15 0,0
18.05.2019 17:00:00 19,7 8,6 21,5 14 8 22 12 N 1006,1 15 0,0
18.05.2019 16:00:00 18,9 8,2 20,5 14 8 22 12 NNE 1006,1 14 0,0
18.05.2019 15:00:00 19,2 8,4 22,0 11 6 22 12 NE 1006,2 12 0,0
18.05.2019 14:00:00 18,6 9,5 21,7 7 4 18 10 NNE 1006,2 11 0,0
18.05.2019 13:00:00 17,3 9,6 20,1 7 4 11 6 NNE 1006,4 10 0,0
18.05.2019 12:00:00 16,3 8,1 17,6 4 2 14 8 NNE 1006,4 10 0,0
18.05.2019 11:00:00 16,1 9,7 18,3 7 4 14 8 N 1006,3 10 0,0
18.05.2019 10:00:00 14,2 8,6 16,0 4 2 11 6 NE 1006,3 11 0,0
18.05.2019 09:00:00 13,7 8,9 14,2 4 2 7 4 E 1006,2 10 0,0
18.05.2019 08:00:00 10,5 8,7 10,0 4 2 4 2 ESE 1006,0 7 0,0
18.05.2019 07:00:00 8,9 8,0 8,3 0 0 4 2 N 1005,8 3,9 0,0
18.05.2019 06:00:00 8,4 7,8 7,5 0 0 4 2 N 1005,6 6 0,0
18.05.2019 05:00:00 8,1 7,2 7,3 4 2 4 2 ENE 1005,7 7 0,0
18.05.2019 04:00:00 7,7 6,7 6,7 4 2 7 4 NE 1006,0 8 0,0
18.05.2019 03:00:00 7,5 6,7 5,6 0 0 4 2 N 1006,1 5 0,0

tt = Température de l'air
td = dewpoint
tt 5cm = Température de l'air 5cm
ff = Vitesse du vent
fx = gusts
dd = Direction du vent
ppp = reduced air pressure
vv = visibility
rr = Quantités de précipitations

stations d'obs. à proximité